Other Surface Observations
Issued by NWS Tucson, AZ

Home | Current Version | Previous Version | Text Only | Print | Product List | Glossary On
Versions: 1 2 3 4 5 6 7 8 9 10 11 12 13 14 15 16 17 18 19 20 21 22 23 24 25 26 27 28 29 30 31 32 33 34 35 36 37 38 39 40 41 42 43 44 45 46 47 48 49 50
522
SXUS55 KTWC 212115
OSOTWC

WEATHER ROUNDUP FOR SOUTHEAST ARIZONA
NATIONAL WEATHER SERVICE TUCSON AZ
215 PM MST THU SEP 21 2017

AZZ504>506-514-212215-
LOCATION       SKY/WX    TMP DP  RH WIND       PRES   REMARKS
TUCSON         SUNNY     95  44  17 SW17G26   29.82F
DAVIS-MONTHAN  SUNNY     96  44  16 SW16G23   29.81F
CHILDRENS PARK N/A      N/A N/A  21 SW8               PIMA CO DEQ
ALVERNON/22ND  N/A       93 N/A N/A SW9               PIMA CO DEQ
CHERRY/GLENN   N/A      N/A N/A N/A N/A               PIMA CO DEQ
TANGERINE      N/A       92 N/A N/A SW11              PIMA CO DEQ
CONTL RANCH    N/A       95  48  20 SW10              PIMA CO DEQ
GRANT/1ST      N/A       93  46  20 SW8               PIMA CO DEQ
CRAYCROFT/22ND N/A       93  45  19 SW9               PIMA CO DEQ
GOLFLINKS/KOLB N/A       92  44  19 SW11              PIMA CO DEQ
AJO/12TH       N/A       93  46  20 S11               PIMA CO DEQ
FAIRGROUNDS    N/A       92 N/A N/A SW14              PIMA CO DEQ
SAGUARO        N/A       96  46  18 SW9G17            *SABINO CYN
SAN CARLOS     N/A       92  46  21 SW12G22           *SAN CARLOS
GREEN VALLEY   N/A       92  44  19 SW13              PIMA CO DEQ
HORSE CAMP CYN N/A       87  48  26 SW17G28           *ARAVAIPA CYN
RINCON MTNS    N/A       74  41  30 SW5G17            *NR MANNING CAMP
$$

AZZ509>511-212215-
LOCATION       SKY/WX    TMP DP  RH WIND       PRES   REMARKS
SAFFORD        SUNNY     94  44  17 W12G22    29.81F
STRAY HORSE    N/A       70  40  34 SW10G19           *
TRAIL CABIN    N/A       79  42  27 SW6G15            *N OF GRANVILLE
BLACK HILLS    NOT AVBL
DRY LAKE       N/A       69  44  40 SW4G18            *NATANES MTNS
NOON CREEK     N/A       85  43  23 SW7G21            *PINALENO MTNS
COLUMBINE      N/A       61  46  57 SW10G22           *PINALENO MTNS
GUTHRIE        N/A       76  45  33 SW16G30           *SW OF GUTHRIE
$$

AZZ502-503-513-212215-
LOCATION       SKY/WX    TMP DP  RH WIND       PRES   REMARKS
NOGALES        SUNNY     91  41  17 S18G29    29.92F
SELLS          N/A       93  35  13 N12G21            *
SASABE         N/A       89  49  25 SW16G26           *ALTAR VLY
HOPKINS        N/A       77  40  27 SW10G23           *SANTA RITA MTNS
CARR CYN       N/A       83  39  21 W5G10             *W OF HEREFORD
$$

AZZ507-508-512-212215-
LOCATION       SKY/WX    TMP DP  RH WIND       PRES   REMARKS
SIERRA VISTA   SUNNY     87  38  17 S22G31    29.98F
DOUGLAS        SUNNY     90  38  16 SW13G26   29.94F
EMPIRE MTNS    NOT AVBL
MULESHOE RANCH N/A       87  47  25 W8G18             *PRESERVE
HEADQUARTERS   N/A       82  42  24 W9G23             *CHIRICAHUA MTNS
$$

.............................NOTES.............................
THIS IS AN AUTOMATED COLLECTIVE WITH MINIMAL QUALITY CONTROL.
PIMA CO DEQ SITES HAVE NONSTANDARD WIND SENSOR HEIGHTS.
PIMA CO DEQ SITES DO NOT REPORT WIND GUSTS.
* INDICATES WIND SENSORS LOCATED AT 20 FEET INSTEAD OF 33 FEET.
..............................KEY..............................
SKY/WX - SKY CONDITION/WEATHER
TMP    - TEMPERATURE IN FAHRENHEIT
DP     - DEWPOINT IN FAHRENHEIT
RH     - RELATIVE HUMIDITY IN PERCENT
WIND   - DIRECTION AND SPEED IN MILES PER HOUR (MPH)
VRB    - VARIABLE WIND DIRECTION
PRES   - MEAN SEA LEVEL PRESSURE IN INCHES OF MERCURY
         F - FALLING PRESSURE   R - RISING PRESSURE
         S - STEADY PRESSURE
VSB    - VISIBILITY IN MILES
HX     - HEAT INDEX IN FAHRENHEIT
WCI    - WIND CHILL INDEX IN FAHRENHEIT
N/A    - NOT AVAILABLE
AFB    - AIR FORCE BASE
         DAVIS-MONTHAN IS DAVIS-MONTHAN AIR FORCE BASE
CYN    - CANYON
MTNS   - MOUNTAINS
NCA    - NATIONAL CONSERVATION AREA
NR     - NEAR
VLY    - VALLEY
CONTL  - CONTINENTAL
PIMA CO DEQ - PIMA COUNTY DEPT OF ENVIRONMENTAL QUALITY



USA.gov is the U.S. government's official web portal to all federal, state and local government web resources and services.